Regional Weather Roundup
Issued by NWS

Home | Current Version | Previous Version | Graphics & Text | Print | Product List | Glossary On
Versions: 1 2 3 4 5 6 7 8 9 10 11 12 13 14 15 16 17 18 19 20 21 22 23 24 25 26 27 28 29 30 31 32 33 34 35 36 37 38 39 40 41 42 43 44 45 46 47 48 49 50
000
ASUS45 KTFX 201919
RWRMT
MONTANA HOURLY WEATHER ROUNDUP
NATIONAL WEATHER SERVICE GREAT FALLS MT
119 PM MDT SUN APR 20 2014

NOTE: "FAIR" INDICATES FEW OR NO CLOUDS BELOW 12000 FEET WITH NO
SIGNIFICANT WEATHER AND/OR OBSTRUCTIONS TO VISIBILITY.

* THESE STATIONS ARE NOT UNDER NWS QUALITY CONTROL. THEY DO NOT
   REPORT WEATHER SUCH AS PRECIPITATION OR FOG.

MTZ001>007-043-202000-
WEST OF THE DIVIDE
CITY           SKY/WX    TMP DP  RH WIND       PRES   REMARKS
KALISPELL      CLOUDY    52  27  38 SW9       30.22S
MISSOULA       SUNNY     52  21  30 W9        30.25F
BUTTE          SUNNY     50  12  22 NW17G23   30.18S
MULLAN PASS    PTCLDY    34  19  54 VRB6      30.23S WCI  29
* ESSEX        N/A       43  31  63 NW2        N/A
* LINCOLN      N/A       48  20  33 SW9G22     N/A
* LOOKOUT PASS N/A       41  22  47 SE9        N/A
* PLAINS APT   SUNNY     55  19  24 SW13G21   30.25S
* POLSON       N/A       54  26  34 SW3G10     N/A
* SEELEY LAKE  N/A       47  19  33 W10G23     N/A
* THOMP F APT  SUNNY     55   1  11 NW7G18     N/A
* YAAK HILL    N/A       54  29  38 SE4G9      N/A
$$

MTZ008-052>055-202000-
SOUTHWEST MONTANA
CITY           SKY/WX    TMP DP  RH WIND       PRES   REMARKS
BOZEMAN        SUNNY     57  14  18 NW18G30   30.15F
DILLON         PTCLDY    55   1  11 SW21G28   30.18S
W YELLOWSTONE  N/A       54  26  34 SW5G14     N/A
* BOULDER HILL N/A       49  18  29 S12G18     N/A
* MONIDA PASS  N/A       49   7  18 NW4G13     N/A
* RAYNOLDS PAS N/A       52  22  31 E3         N/A
* WHITEHALL    N/A       58  16  19 NW8G20     N/A
* WISE RIVER   N/A       48  14  25 W14G21     N/A
$$

MTZ009>010-012-014-046-048-049-054-202000-
EAST SLOPES AND CENTRAL MONTANA
CITY           SKY/WX    TMP DP  RH WIND       PRES   REMARKS
CUT BANK       SUNNY     55  23  29 W31G37    30.05R
GREAT FALLS    PTCLDY    57  16  20 W22G31    30.08R
HELENA         PTCLDY    55  16  21 W18G29    30.16S
MALMSTROM AFB  SUNNY     57  14  18 W21G28    30.07R
* DEARBORN     N/A       54  18  24 S20        N/A
* MONARCH      N/A       47  12  24 W17G26     N/A
* PENDROY      N/A       52  21  30 W35G45     N/A
* ROGERS PASS  N/A       43  15  32 SE16G24    N/A
* SAINT MARY   N/A       42  29  60 SW9G22     N/A
* SWEET GRASS  N/A       53  20  27 NW28G35    N/A
* WHITE SULPH  N/A       52  14  22 SW10G25    N/A
$$

MTZ011-013-016-021-035-040-045-047-050-051-202000-
NORTH CENTRAL MONTANA
CITY           SKY/WX    TMP DP  RH WIND       PRES   REMARKS
HAVRE          CLOUDY    61  27  27 W22G35    30.00R
LEWISTOWN      SUNNY     55  14  20 NW24G31   30.07S
* CHINOOK      SUNNY     61  27  27 W28G35    29.98R
* FORT BENTON  SUNNY     61  18  19 W21G29    30.07R
* MALTA APT    SUNNY     63  27  26 W24G35    29.93S
* CHESTER      N/A       54  21  27 NW22G38    N/A
* DENTON       N/A       58  21  24 W26G37     N/A
* GEYSER       N/A       55  17  22 W26G37     N/A
* JUDITH GAP   N/A       54  15  21 NW12G26    N/A
* LOMA         N/A       58  20  23 W24G35     N/A
$$

MTZ017>020-022>027-061-062-202000-
NORTHEAST MONTANA
CITY           SKY/WX    TMP DP  RH WIND       PRES   REMARKS
GLASGOW        SUNNY     63  28  27 W30G40    29.94R
GLENDIVE       SUNNY     64  27  25 W21G30    29.97S
JORDAN         SUNNY     63  19  18 W26G35    29.99R
SIDNEY         PTCLDY    64  28  26 NW17G30   29.95R
WOLF POINT     SUNNY     64  25  23 W25G39    29.93S
* BEAVER HILL  N/A       62  24  23 W24G35     N/A
* CIRCLE       N/A       61  29  30 W13G28     N/A
* LINDSAY DVD  N/A       60  23  24 W22G38     N/A
* NAVAJO       N/A       60  30  32 W24G37     N/A
* SACO         N/A       62  28  28 W31G39     N/A
* SCOBEY APT   SUNNY     61  27  27 W31G37    29.88R
$$

MTZ028>042-056>058-202000-
SOUTHCENTRAL AND SOUTHEAST MONTANA
CITY           SKY/WX    TMP DP  RH WIND       PRES   REMARKS
BAKER          PTCLDY    64  28  26 NW18G30   29.98R
BILLINGS       PTCLDY    64  18  17 NW17G28   30.08R
LIVINGSTON     PTCLDY    61  10  13 W30G43    30.11F
MILES CITY     SUNNY     64  21  19 NW24G32   30.00S
* EKALAKA APT  PTSUNNY   61  25  25 W17G25    29.99S
* LAUREL APT   SUNNY     61  21  21 NW18G25    N/A
* ROUNDUP APT  SUNNY     61   9  13 W18G28     N/A
* HYSHAM       N/A       62  27  26 W6G23      N/A
* REED POINT   N/A       61  26  26 W24G32     N/A
* ROSCOE HILL  N/A       56  17  22 NW11G19    N/A
$$

REGIONAL REPORTS...DAKOTAS
CITY           SKY/WX    TMP DP  RH WIND       PRES   REMARKS
WILLISTON      PTSUNNY   64  30  28 W24G30    29.87R
DICKINSON      CLOUDY    64  28  26 W21G26    29.90R
CROSBY         SUNNY     63  30  29 W31G38    29.84R
TIOGA          PTCLDY    63  32  31 W21G26    29.85S
WATFORD CITY   SUNNY     64  30  28 NW17G29   29.86S
BISMARCK       PTSUNNY   73  30  20 S15G28    29.88F
GRAND FORKS    PTSUNNY   64  39  40 S8G17     29.96F
FARGO          SUNNY     72  37  28 S12       29.96F
BUFFALO SD     CLOUDY    63  28  27 NW24      29.90R
RAPID CITY     SUNNY     73  39  29 NE6       29.91F
$$

REGIONAL REPORTS...WYOMING/IDAHO/WASHINGTON
CITY           SKY/WX    TMP DP  RH WIND       PRES   REMARKS
GILLETTE       CLOUDY    57  30  36 N17       30.07R
SHERIDAN       PTSUNNY   61  34  36 NW13      30.08F
CODY           PTCLDY    59  32  36 N16G21    30.08S
YELLOWSTONE LA SUNNY     46  19  34 W15G23    30.22R
SALMON         SUNNY     55  19  24 N8        30.20F
MULLAN PASS    PTCLDY    34  19  54 VRB6      30.23S WCI  29
SAND POINT     CLOUDY    50  32  50 S7        30.28S
SPOKANE        PTCLDY    52  28  40 SW12G23   30.27R
$$

REGIONAL REPORTS...ALBERTA
CITY           SKY/WX    TMP DP  RH WIND       PRES   REMARKS
CALGARY        PTSUNNY   54  21  27 NW10G25   29.97R
LETHBRIDGE     PTCLDY    57  25  29 W28G44    30.01R
MEDICINE HAT   PTCLDY    61  27  27 W21G30    29.97R
EDMONTON       PTSUNNY   48  36  63 NW15      29.94R
WATERTON GATE  N/A       48  21  34 SW20G31    N/A
CARDSTON       N/A       50  25  38 W20G33     N/A
MILK RIVER     N/A       57  23  27 W25G35     N/A
$$

REGIONAL REPORTS...SASKATCHEWAN
CITY           SKY/WX    TMP DP  RH WIND       PRES   REMARKS
SWIFT CURRENT  PTSUNNY   54  28  37 W31G41    29.82R
REGINA         LGT RAIN  41  37  86 NE8       29.86R
VAL MARIE      N/A       59  25  27 W29G38     N/A
ASSINIBOIA     N/A       55  34  45 W22G35     N/A
CORONACH       N/A       61  28  29 W25G37     N/A

$$




USA.gov is the U.S. government's official web portal to all federal, state and local government web resources and services.